Location: Oriwa
(40.7500°S, 175.3333°E)
Time: 14:10:23
(UTC+00:00)

Okean 1-7 - Pass Details

Date: 03 February 2023
Orbit: 587 x 612 km, 82.5° (Epoch: 31 March)

Event Time Altitude Azimuth Distance (km) Brightness Sun altitude
Exits shadow 15:06:11 44° 249° (WSW) 864 3.6 -22.6°
Drops below altitude 10° 15:10:14 10° 185° (S) 2,010 6.2 -22.1°
Sets 15:12:35 0° 178° (S) 2,925 7.3 -21.8°
